Location: St. Louis
(38.6270°N, 90.1994°W)
Time: 20:29:32
(UTC-05:00)

FENGYUN 1C DEB - Visible Passes

Search period start: 30 June 2022 00:00
Search period end: 10 July 2022 00:00
Orbit: 703 x 1129 km, 99.0° (Epoch: 28 June)

Date Brightness Start Highest point End Pass type
(mag) Time Alt. Az. Time Alt. Az. Time Alt. Az.
30 Jun ? 21:09:59 10° SW 21:13:39 22° W 21:17:31 10° NW visible
01 Jul ? 21:17:42 10° SW 21:21:03 18° W 21:24:33 10° NW visible
02 Jul ? 21:25:33 10° SW 21:28:27 16° W 21:31:30 10° NW visible
03 Jul ? 21:33:32 10° WSW 21:35:52 13° W 21:38:17 10° WNW visible
04 Jul ? 21:41:53 10° WSW 21:43:18 11° W 21:44:45 10° WNW visible
